Regional Weather Roundup
Issued by NWS Green Bay, WI

Home | Current Version | Previous Version | Text Only | Print | Product List | Glossary On
Versions: 1 2 3 4 5 6 7 8 9 10 11 12 13 14 15 16 17 18 19 20 21 22 23 24 25 26 27 28 29 30 31 32 33 34 35 36 37 38 39 40 41 42 43 44 45 46 47 48 49 50
000
ASUS43 KGRB 060411
RWRGRB

NORTH-CENTRAL AND NORTHEAST WISCONSIN REGIONAL WEATHER ROUNDUP
NATIONAL WEATHER SERVICE GREEN BAY WI
1000 PM CST MON DEC 05 2016

WIZ005-009-010>012-018-019-060500-
NORTH CENTRAL WISCONSIN

CITY           SKY/WX    TMP DP  RH WIND       PRES   REMARKS
IRONWOOD       CLOUDY    37  31  78 S10G20    29.73F
MANITOWISH WTR CLOUDY    35  33  93 SE7       29.74F
ARBOR VITAE    PTCLDY    37  32  85 SE10      29.74F
EAGLE RIVER    PTCLDY    33  33  97 SE5       29.80S
LAND O LAKES   CLOUDY    34  32  93 SE5       29.82R
RHINELANDER    CLOUDY    34  32  92 SE9       29.79F
PHILLIPS       PTCLDY    33  30  90 SE6       29.75R
ANTIGO         CLOUDY    30  30 100 SE10      29.84F FOG
TOMAHAWK       CLOUDY    32  30  90 SE5       29.77F
MERRILL        CLOUDY    32  31  98 SE9       29.80F
$$

WIZ013-073-060500-
NORTHEAST WISCONSIN

CITY           SKY/WX    TMP DP  RH WIND       PRES   REMARKS
IRON MOUNTAIN  CLOUDY    32  29  88 SE6       29.85F
MARINETTE      CLOUDY    35  33  92 S7        29.93S FOG
OCONTO         CLOUDY    34  32  92 SE7       29.93S
$$

WIZ017-030-035>037-045-060500-
CENTRAL WISCONSIN

CITY           SKY/WX    TMP DP  RH WIND       PRES   REMARKS
MEDFORD        MOCLDY    32  29  90 S8        29.79R
WAUSAU         CLOUDY    32  30  92 SE8       29.81F
MOSINEE        NOT AVBL
MARSHFIELD     CLOUDY    32  29  88 SE12      29.79F
WISC RAPIDS    CLOUDY    32  31  96 SE8       29.85F FOG
STEVENS POINT  CLOUDY    30  30 100 SE6       29.85F FOG
WAUPACA        CLOUDY    34  32  92 CALM      29.89S FOG
SHAWANO        CLOUDY    35  32  90 SE5       29.90F FOG
CLINTONVILLE   CLOUDY    32  32 100 SE8       29.89F FOG
WAUTOMA        CLOUDY    32  31  96 SE8       29.88F FOG
$$

WIZ038-039-048-051-060500-
FOX VALLEY

CITY           SKY/WX    TMP DP  RH WIND       PRES   REMARKS
NWS GREEN BAY  CLOUDY    35  33  92 SE8       29.92F
APPLETON       CLOUDY    34  32  93 SE7       29.89F
OSHKOSH        PTCLDY    32  30  92 SE6       29.89F
FOND DU LAC    CLOUDY    33  29  85 SE8       29.90F
$$

WIZ022-050-052-060500-
EAST CENTRAL WISCONSIN

CITY           SKY/WX    TMP DP  RH WIND       PRES   REMARKS
EPHRAIM        CLOUDY    33  32  96 SE5       29.93F
WASHINGTON ISL CLOUDY    35  32  91 S7        29.95R
STURGEON BAY   NOT AVBL
MANITOWOC      CLOUDY    35  34  96 MISG      29.94F FOG
SHEBOYGAN      CLOUDY    34  32  92 S5        29.93F FOG
$$

LMZ563-521-522-541>543-060500-
LAKESHORE

STATION/POSITION TIME  TEMP    WIND        PRES    VSBY  WAVE
                       AIR SEA DIR/SP/G                  HT/PER
                 (UTC) (F)     (DEG/KT/KT) (MB)    (MI)  (FT/S)
SHEBOYGAN LKSHOR 0400   39     170/ 15/ 16 1013.8F
KEWAUNEE LKSHORE 0336   37     200/  8/ 11 1013.7F
NORTHPORT PIER   0340   35     170/  2/  6 1014.6R
SISTER BAY LKSHO 0338   34     160/  9/ 11   N/A
CHAMBERS ISLAND  0340   36      70/  9/ 11 1013.2F
MENOMINEE LKSHOR 0336   36     140/ 14/ 15 1013.1R
$$




USA.gov is the U.S. government's official web portal to all federal, state and local government web resources and services.